Weather History for Barcelona, Spain

Change the Weather History Date:

Wednesday, January 9, 2013

  Actual Average Record
Temperature  
Mean Temperature 50 °F -  
Max Temperature 57 °F 54 °F 62 °F (2011)
Min Temperature 42 °F 40 °F 37 °F (2001)
Degree Days  
Heating Degree Days 15    
Moisture  
Dew Point 39 °F    
Average Humidity 69    
Maximum Humidity 77    
Minimum Humidity 48    
Precipitation  
Precipitation 0.00 in 0.05 in - ()
Sea Level Pressure  
Sea Level Pressure 30.17 in    
Wind  
Wind Speed 10 mph ()    
Max Wind Speed 16 mph    
Max Gust Speed 28 mph    
Visibility 6.2 miles    
Events      
Averages and records for this station are not official NWS values.
T = Trace of Precipitation, MM = Missing Value Source: Averaged Metar Reports

Daily Weather History Graph

Daily Weather History Graph

Search for Another Location

Airport:

Trip Planner

Search our weather history database for the weather conditions in past years. The results will help you decide how hot, cold, wet, or windy it might be!

Date:

Astronomy

Jan. 09, 2013 Rise Set
Actual Time 8:17 AM CET 5:40 PM CET
Civil Twilight 7:46 AM CET 6:11 PM CET
Nautical Twilight 7:12 AM CET 6:46 PM CET
Astronomical Twilight 6:38 AM CET 7:19 PM CET
Moon 5:40 AM CET (1/9) 3:26 PM CET (1/9)
Length of Visible Light 10h 25m
Length of Day
9h 23m
Waning Crescent, 8% of the Moon is Illuminated
Jan 9
Waning Crescent
Jan 11
New
Jan 19
First Quarter
Jan 27
Full
Feb 3
Last Quarter

Hourly Weather History & Observations

Time (CET) Temp. Windchill Dew Point Humidity Pressure Visibility Wind Dir Wind Speed Gust Speed Precip Events Conditions
12:00 AM 50.0 °F - 39.2 °F 66% 30.24 in - NW 11.5 mph - N/A   Clear
12:30 AM 48.2 °F - 39.2 °F 71% 30.24 in - NW 9.2 mph - N/A   Clear
1:00 AM 47 °F - 37 °F 58% 30.25 in 8 mi North 11.5 mph - -  
1:00 AM 48.2 °F - 39.2 °F 71% 30.24 in - NW 11.5 mph - N/A   Clear
1:30 AM 48.2 °F - 39.2 °F 71% 30.24 in - NW 9.2 mph - N/A   Clear
2:30 AM 46.4 °F 41.5 °F 39.2 °F 76% 30.21 in - NW 10.4 mph - N/A   Clear
3:00 AM 46.4 °F 43.5 °F 39.2 °F 76% 30.21 in - WNW 5.8 mph - N/A   Clear
3:30 AM 46.4 °F 42.4 °F 39.2 °F 76% 30.21 in - NW 8.1 mph - N/A   Clear
4:00 AM 46.4 °F 41.1 °F 39.2 °F 76% 30.21 in - NW 11.5 mph - N/A   Clear
4:30 AM 46.4 °F 40.1 °F 39.2 °F 76% 30.21 in - NNW 15.0 mph - N/A   Clear
5:00 AM 46.4 °F 40.4 °F 37.4 °F 71% 30.18 in - NW 13.8 mph - N/A   Clear
5:30 AM 46.4 °F 40.4 °F 39.2 °F 76% 30.18 in - NW 13.8 mph - N/A   Clear
6:00 AM 44.6 °F 38.1 °F 37.4 °F 76% 30.18 in - NW 13.8 mph - N/A   Clear
6:30 AM 44.6 °F 38.4 °F 37.4 °F 76% 30.18 in - NNW 12.7 mph - N/A   Clear
7:00 AM 43 °F - 36 °F 69% 30.21 in 7 mi NNW 11.5 mph - -  
7:00 AM 44.6 °F 38.1 °F 37.4 °F 76% 30.18 in - NNW 13.8 mph - N/A   Clear
7:30 AM 44.6 °F 37.8 °F 37.4 °F 76% 30.18 in - NNW 15.0 mph - N/A   Clear
8:00 AM 44.6 °F 37.8 °F 37.4 °F 76% 30.21 in - NNW 15.0 mph - N/A   Clear
8:30 AM 44.6 °F 38.1 °F 37.4 °F 76% 30.21 in - NNW 13.8 mph 27.6 mph N/A   Clear
9:00 AM 44.6 °F 38.4 °F 37.4 °F 76% 30.21 in - NNW 12.7 mph 24.2 mph N/A   Clear
9:30 AM 44.6 °F 38.4 °F 37.4 °F 76% 30.21 in - NNW 12.7 mph - N/A   Clear
10:00 AM 46.4 °F 40.7 °F 37.4 °F 71% 30.21 in - NNW 12.7 mph - N/A   Clear
10:30 AM 48.2 °F - 39.2 °F 71% 30.21 in - NNW 15.0 mph - N/A   Clear
11:00 AM 50.0 °F - 39.2 °F 66% 30.21 in - NNW 13.8 mph - N/A   Clear
11:30 AM 50.0 °F - 39.2 °F 66% 30.21 in - NNW 11.5 mph - N/A   Clear
12:00 PM 51.8 °F - 39.2 °F 62% 30.21 in - NNW 12.7 mph - N/A   Clear
12:30 PM 53.6 °F - 41.0 °F 62% 30.18 in - NNW 9.2 mph - N/A   Clear
1:00 PM 55 °F - 41 °F 48% 30.19 in 7 mi North 5.8 mph - -  
1:00 PM 55.4 °F - 41.0 °F 58% 30.18 in - NNW 6.9 mph - N/A   Clear
1:30 PM 57.2 °F - 42.8 °F 59% 30.15 in - WSW 2.3 mph - N/A   Clear
2:00 PM 57.2 °F - 46.4 °F 67% 30.15 in - WSW 3.5 mph - N/A   Clear
2:30 PM 55.4 °F - 46.4 °F 72% 30.15 in - SW 8.1 mph - N/A   Clear
3:00 PM 55.4 °F - 46.4 °F 72% 30.15 in - SW 8.1 mph - N/A   Clear
3:30 PM 55.4 °F - 46.4 °F 72% 30.15 in 5.6 mi SW 8.1 mph - N/A   Partly Cloudy
4:00 PM 55.4 °F - 46.4 °F 72% 30.15 in 5.6 mi SW 8.1 mph - N/A   Partly Cloudy
4:30 PM 55.4 °F - 48.2 °F 77% 30.15 in 5.6 mi West 6.9 mph 18.4 mph N/A   Scattered Clouds
5:00 PM 51.8 °F - 35.6 °F 54% 30.12 in 5.6 mi NNW 13.8 mph - N/A   Scattered Clouds
5:30 PM 50.0 °F - 35.6 °F 58% 30.12 in 6.2 mi NW 15.0 mph - N/A   Scattered Clouds
6:00 PM 50.0 °F - 33.8 °F 54% 30.12 in 6.2 mi NW 16.1 mph - N/A   Partly Cloudy
6:30 PM 50.0 °F - 33.8 °F 54% 30.12 in 6.2 mi NW 15.0 mph - N/A   Partly Cloudy
7:00 PM 48.2 °F - 35.6 °F 62% 30.12 in 6.2 mi NW 15.0 mph - N/A   Partly Cloudy
7:30 PM 46.4 °F 39.8 °F 35.6 °F 66% 30.12 in 6.2 mi NW 16.1 mph - N/A   Partly Cloudy
8:00 PM 46.4 °F 40.7 °F 35.6 °F 66% 30.12 in 6.2 mi NW 12.7 mph - N/A   Partly Cloudy
8:30 PM 46.4 °F 40.7 °F 35.6 °F 66% 30.12 in 6.2 mi NW 12.7 mph - N/A   Partly Cloudy
9:00 PM 44.6 °F 38.1 °F 35.6 °F 71% 30.12 in 6.2 mi NNW 13.8 mph - N/A   Partly Cloudy
9:30 PM 44.6 °F 38.4 °F 35.6 °F 71% 30.12 in 6.2 mi NNW 12.7 mph - N/A   Partly Cloudy
10:00 PM 44.6 °F 39.7 °F 33.8 °F 66% 30.12 in 6.2 mi NNW 9.2 mph - N/A   Partly Cloudy
10:30 PM 44.6 °F 38.8 °F 35.6 °F 71% 30.12 in 6.2 mi NNW 11.5 mph - N/A   Partly Cloudy
11:00 PM 44.6 °F 38.8 °F 35.6 °F 71% 30.12 in 6.2 mi NNW 11.5 mph - N/A   Partly Cloudy
11:30 PM 42.8 °F 36.6 °F 33.8 °F 70% 30.12 in 6.2 mi NW 11.5 mph - N/A   Partly Cloudy